| time (UTC) | temp F | wind direction | speed knots | gust knots | rain 1hr in | rain 24hr in | rain mn in | humidity % | barometer mb |
| 20260906001601 | 89 | 190 | 2.6 | 12.2 | 0.00 | 0.00 | 0.00 | 20 | 1016.2 |
| 20260906000106 | 90 | 188 | 3.5 | 13.0 | 0.00 | 0.00 | 0.00 | 20 | 1016.3 |
| 20260905234602 | 90 | 155 | 5.2 | 13.0 | 0.00 | 0.00 | 0.00 | 19 | 1016.2 |
| 20260905233106 | 90 | 147 | 5.2 | 14.8 | 0.00 | 0.00 | 0.00 | 20 | 1016.2 |
| 20260905231602 | 91 | 176 | 1.7 | 10.4 | 0.00 | 0.00 | 0.00 | 20 | 1016.0 |
| 20260905230103 | 90 | 213 | 1.7 | 10.4 | 0.00 | 0.00 | 0.00 | 20 | 1016.1 |
| 20260905224559 | 90 | 189 | 2.6 | 10.4 | 0.00 | 0.00 | 0.00 | 21 | 1016.1 |
| 20260905223059 | 89 | 182 | 2.6 | 9.6 | 0.00 | 0.00 | 0.00 | 21 | 1016.3 |
| 20260905221602 | 89 | 230 | 2.6 | 12.2 | 0.00 | 0.00 | 0.00 | 21 | 1016.3 |
| 20260905214604 | 88 | 221 | 3.5 | 8.7 | 0.00 | 0.00 | 0.00 | 22 | 1016.6 |
| 20260905213100 | 88 | 198 | 3.5 | 10.4 | 0.00 | 0.00 | 0.00 | 21 | 1016.8 |
| 20260905211611 | 89 | 206 | 3.5 | 8.7 | 0.00 | 0.00 | 0.00 | 21 | 1016.7 |
| 20260905210110 | 89 | 153 | 1.7 | 8.7 | 0.00 | 0.00 | 0.00 | 21 | 1017.0 |
| 20260905204559 | 89 | 236 | 3.5 | 9.6 | 0.00 | 0.00 | 0.00 | 20 | 1017.0 |
| 20260905203101 | 89 | 224 | 6.1 | 12.2 | 0.00 | 0.00 | 0.00 | 21 | 1017.1 |
| 20260905201600 | 89 | 200 | 3.5 | 13.9 | 0.00 | 0.00 | 0.00 | 22 | 1017.0 |
| 20260905194600 | 90 | 209 | 2.6 | 9.6 | 0.00 | 0.00 | 0.00 | 20 | 1017.1 |
| 20260905193104 | 89 | 188 | 2.6 | 7.8 | 0.00 | 0.00 | 0.00 | 21 | 1017.2 |
| 20260905191604 | 88 | 257 | 1.7 | 9.6 | 0.00 | 0.00 | 0.00 | 22 | 1017.2 |
| 20260905190107 | 87 | 215 | 3.5 | 12.2 | 0.00 | 0.00 | 0.00 | 23 | 1017.4 |
| 20260905184611 | 87 | 170 | 3.5 | 8.7 | 0.00 | 0.00 | 0.00 | 22 | 1017.4 |
| 20260905183118 | 86 | 142 | 1.7 | 7.8 | 0.00 | 0.00 | 0.00 | 24 | 1017.5 |
| 20260905181606 | 85 | 250 | 0.9 | 6.1 | 0.00 | 0.00 | 0.00 | 24 | 1017.9 |
| 20260905180108 | 84 | 238 | 1.7 | 7.0 | 0.00 | 0.00 | 0.00 | 24 | 1018.1 |
| 20260905174605 | 84 | 321 | 3.5 | 7.8 | 0.00 | 0.00 | 0.00 | 24 | 1018.1 |
| 20260905173108 | 83 | 235 | 1.7 | 9.6 | 0.00 | 0.00 | 0.00 | 24 | 1018.3 |
| 20260905171601 | 84 | 265 | 4.3 | 12.2 | 0.00 | 0.00 | 0.00 | 24 | 1018.5 |
| 20260905164559 | 82 | 219 | 2.6 | 10.4 | 0.00 | 0.00 | 0.00 | 24 | 1018.4 |
| 20260905163109 | 81 | 247 | 4.3 | 9.6 | 0.00 | 0.00 | 0.00 | 25 | 1018.3 |
| 20260905161604 | 80 | 281 | 2.6 | 7.0 | 0.00 | 0.00 | 0.00 | 26 | 1018.3 |
| 20260905160104 | 78 | 223 | 1.7 | 6.1 | 0.00 | 0.00 | 0.00 | 27 | 1018.2 |
| 20260905154601 | 77 | 231 | 1.7 | 7.8 | 0.00 | 0.00 | 0.00 | 28 | 1018.4 |
| 20260905153115 | 76 | 214 | 2.6 | 6.1 | 0.00 | 0.00 | 0.00 | 29 | 1018.3 |
| 20260905151611 | 75 | 0 | 0.0 | 2.6 | 0.00 | 0.00 | 0.00 | 31 | 1018.5 |
| 20260905150106 | 74 | 0 | 0.0 | 0.0 | 0.00 | 0.00 | 0.00 | 34 | 1018.5 |
| 20260905144609 | 72 | 0 | 0.0 | 1.7 | 0.00 | 0.00 | 0.00 | 34 | 1018.5 |
| 20260905143107 | 71 | 0 | 0.0 | 0.0 | 0.00 | 0.00 | 0.00 | 35 | 1018.5 |
| 20260905141628 | 69 | 0 | 0.0 | 0.0 | 0.00 | 0.00 | 0.00 | 38 | 1018.6 |
| 20260905140109 | 65 | 0 | 0.0 | 0.0 | 0.00 | 0.00 | 0.00 | 44 | 1018.6 |
| 20260905134558 | 63 | 0 | 0.0 | 4.3 | 0.00 | 0.00 | 0.00 | 44 | 1018.5 |
| 20260905133121 | 60 | 111 | 0.9 | 3.5 | 0.00 | 0.00 | 0.00 | 46 | 1018.3 |
| 20260905131619 | 59 | 345 | 1.7 | 4.3 | 0.00 | 0.00 | 0.00 | 47 | 1018.3 |
| 20260905130106 | 59 | 0 | 0.0 | 1.7 | 0.00 | 0.00 | 0.00 | 48 | 1017.9 |
| 20260905124600 | 58 | 0 | 0.0 | 2.6 | 0.00 | 0.00 | 0.00 | 48 | 1017.8 |
| 20260905123110 | 59 | 0 | 0.0 | 2.6 | 0.00 | 0.00 | 0.00 | 47 | 1017.7 |
| 20260905121606 | 58 | 350 | 0.9 | 3.5 | 0.00 | 0.00 | 0.00 | 47 | 1017.6 |
| 20260905120105 | 58 | 350 | 0.0 | 1.7 | 0.00 | 0.00 | 0.00 | 50 | 1017.6 |
| 20260905114602 | 58 | 350 | 0.9 | 2.6 | 0.00 | 0.00 | 0.00 | 49 | 1017.8 |
| 20260905113101 | 58 | 0 | 0.0 | 1.7 | 0.00 | 0.00 | 0.00 | 48 | 1017.5 |
| 20260905111557 | 59 | 0 | 0.0 | 0.0 | 0.00 | 0.00 | 0.00 | 47 | 1017.4 |
| 20260905110101 | 59 | 0 | 0.0 | 0.0 | 0.00 | 0.00 | 0.00 | 47 | 1017.3 |
| 20260905104559 | 60 | 0 | 0.0 | 0.9 | 0.00 | 0.00 | 0.00 | 47 | 1017.2 |
| 20260905103101 | 60 | 350 | 0.9 | 2.6 | 0.00 | 0.00 | 0.00 | 47 | 1017.0 |
| 20260905101601 | 60 | 350 | 0.0 | 2.6 | 0.00 | 0.00 | 0.00 | 45 | 1016.8 |
| 20260905100121 | 61 | 98 | 0.9 | 2.6 | 0.00 | 0.00 | 0.00 | 44 | 1016.8 |
| 20260905094603 | 61 | 97 | 0.9 | 3.5 | 0.00 | 0.00 | 0.00 | 44 | 1016.6 |
| 20260905093100 | 62 | 87 | 0.9 | 2.6 | 0.00 | 0.00 | 0.00 | 43 | 1016.7 |
| 20260905091609 | 62 | 78 | 0.9 | 2.6 | 0.00 | 0.00 | 0.00 | 42 | 1016.6 |
| 20260905090135 | 62 | 78 | 0.0 | 2.6 | 0.00 | 0.00 | 0.00 | 43 | 1016.6 |
| 20260905084559 | 62 | 0 | 0.0 | 0.9 | 0.00 | 0.00 | 0.00 | 44 | 1016.6 |
| 20260905083058 | 62 | 0 | 0.9 | 2.6 | 0.00 | 0.00 | 0.00 | 43 | 1016.6 |
| 20260905081605 | 62 | 0 | 0.0 | 1.7 | 0.00 | 0.00 | 0.00 | 42 | 1016.5 |
| 20260905074606 | 65 | 0 | 0.0 | 1.7 | 0.00 | 0.00 | 0.00 | 39 | 1016.3 |
| 20260905073107 | 65 | 97 | 0.9 | 2.6 | 0.00 | 0.00 | 0.00 | 38 | 1016.4 |
| 20260905071559 | 66 | 0 | 0.0 | 1.7 | 0.00 | 0.00 | 0.00 | 38 | 1016.2 |
| 20260905070110 | 66 | 0 | 0.0 | 1.7 | 0.00 | 0.00 | 0.00 | 39 | 1016.2 |
| 20260905064559 | 67 | 0 | 0.0 | 1.7 | 0.00 | 0.00 | 0.00 | 36 | 1016.0 |
| 20260905063106 | 67 | 132 | 0.0 | 2.6 | 0.00 | 0.00 | 0.00 | 34 | 1016.0 |
| 20260905061559 | 66 | 0 | 0.0 | 2.6 | 0.00 | 0.00 | 0.00 | 36 | 1015.6 |
| 20260905060109 | 66 | 103 | 0.0 | 2.6 | 0.00 | 0.00 | 0.00 | 35 | 1015.5 |
| 20260905054603 | 68 | 87 | 0.9 | 2.6 | 0.00 | 0.00 | 0.00 | 33 | 1015.3 |
| 20260905053102 | 68 | 0 | 0.0 | 3.5 | 0.00 | 0.00 | 0.00 | 33 | 1015.1 |
| 20260905051600 | 69 | 81 | 1.7 | 3.5 | 0.00 | 0.00 | 0.00 | 31 | 1015.1 |
| 20260905050108 | 70 | 153 | 0.0 | 1.7 | 0.00 | 0.00 | 0.00 | 30 | 1015.0 |
| 20260905044604 | 71 | 0 | 0.0 | 1.7 | 0.00 | 0.00 | 0.00 | 30 | 1015.0 |
| 20260905043103 | 72 | 0 | 0.0 | 1.7 | 0.00 | 0.00 | 0.00 | 28 | 1015.1 |
| 20260905041558 | 74 | 151 | 0.9 | 4.3 | 0.00 | 0.00 | 0.00 | 27 | 1015.1 |
| 20260905040105 | 75 | 0 | 0.9 | 4.3 | 0.00 | 0.00 | 0.00 | 25 | 1015.1 |
| 20260905034601 | 77 | 165 | 2.6 | 7.8 | 0.00 | 0.00 | 0.00 | 24 | 1015.0 |
| 20260905033105 | 77 | 188 | 3.5 | 7.0 | 0.00 | 0.00 | 0.00 | 23 | 1015.0 |
| 20260905031609 | 79 | 201 | 4.3 | 7.0 | 0.00 | 0.00 | 0.00 | 22 | 1015.0 |
| 20260905030106 | 79 | 186 | 2.6 | 7.0 | 0.00 | 0.00 | 0.00 | 22 | 1015.0 |
| 20260905024557 | 79 | 171 | 3.5 | 7.8 | 0.00 | 0.00 | 0.00 | 24 | 1014.7 |
| 20260905023104 | 79 | 185 | 1.7 | 4.3 | 0.00 | 0.00 | 0.00 | 25 | 1014.6 |
| 20260905021603 | 81 | 176 | 0.9 | 4.3 | 0.00 | 0.00 | 0.00 | 23 | 1014.2 |
| 20260905014559 | 83 | 174 | 1.7 | 7.0 | 0.00 | 0.00 | 0.00 | 20 | 1014.0 |
| 20260905013104 | 85 | 151 | 3.5 | 9.6 | 0.00 | 0.00 | 0.00 | 19 | 1013.8 |
| 20260905011600 | 87 | 192 | 5.2 | 12.2 | 0.00 | 0.00 | 0.00 | 18 | 1013.7 |
| 20260905010111 | 87 | 160 | 5.2 | 13.9 | 0.00 | 0.00 | 0.00 | 20 | 1013.4 |
| 20260905004610 | 88 | 177 | 7.0 | 15.6 | 0.00 | 0.00 | 0.00 | 20 | 1013.4 |
| 20260905003103 | 88 | 155 | 7.0 | 15.6 | 0.00 | 0.00 | 0.00 | 20 | 1013.3 |